Date String (YYYY-MM-DD hh:mm:ss) UTC,Instrument flags,Ambient pressure (hPa),Sample flow (lpm),Bypass flow (lpm),Sample temperature (°C),Ambient temperature (°C),ASC tube jacket temperature (°C),LED temperature (°C),Box temperature (°C),Sample RH (%),Span deviation,Mass concentration (μg/m³),Mass concentration (μg/m³),Mass concentration (μg/m³)
DateTimeUTC,F1_M11,P_M11,Q1_M11,Q2_M11,T1_M11,T2_M11,T3_M11,T4_M11,T5_M11,U1_M11,ZSPAN_M11,X0_M11,X2_M11,X1_M11
2021-10-09 08:00:00,,0821.4,4.99,0.00,30.3,29.3,00.0,39.4,32.0,18.7,0000.0,0008.53,0003.31,0002.50
2021-10-09 08:01:00,,0821.4,5.00,0.00,30.3,29.3,00.0,39.4,32.0,18.7,0000.0,0007.89,0003.30,0002.53
2021-10-09 08:02:00,,0821.4,5.01,0.00,30.2,29.3,00.0,39.4,32.0,18.7,0000.0,0007.10,0003.28,0002.54
2021-10-09 08:03:00,,0821.4,4.99,0.00,30.3,29.3,00.0,39.4,32.0,18.7,0000.0,0007.57,0003.30,0002.54
2021-10-09 08:04:00,,0821.4,5.00,0.00,30.3,29.3,00.0,39.4,32.0,18.7,0000.0,0007.54,0003.31,0002.55
2021-10-09 08:05:00,,0821.4,5.00,0.00,30.3,29.4,00.0,39.4,32.0,18.7,0000.0,0007.61,0003.31,0002.56
2021-10-09 08:06:00,,0821.4,4.99,0.00,30.3,29.4,00.0,39.4,32.0,18.7,0000.0,0007.72,0003.31,0002.57
2021-10-09 08:07:00,,0821.3,4.99,0.00,30.3,29.4,00.0,39.4,32.0,18.6,0000.0,0007.56,0003.32,0002.57
2021-10-09 08:08:00,,0821.3,5.01,0.00,30.3,29.4,00.0,39.4,32.0,18.5,0000.0,0007.96,0003.32,0002.56
2021-10-09 08:09:00,,0821.3,5.00,0.00,30.3,29.4,00.0,39.4,32.0,18.4,0000.0,0007.95,0003.28,0002.56
2021-10-09 08:10:00,,0821.3,5.00,0.00,30.3,29.4,00.0,39.4,32.0,18.4,0000.0,0007.99,0003.29,0002.57
2021-10-09 08:11:00,,0821.4,5.00,0.00,30.3,29.4,00.0,39.4,32.0,18.5,0000.0,0008.79,0003.31,0002.57
2021-10-09 08:12:00,,0821.4,4.99,0.00,30.3,29.4,00.0,39.4,32.0,18.5,0000.0,0008.91,0003.29,0002.56
2021-10-09 08:13:00,,0821.3,5.02,0.00,30.3,29.4,00.0,39.4,32.0,18.5,0000.0,0009.40,0003.30,0002.54
2021-10-09 08:14:00,,0821.4,5.00,0.00,30.3,29.4,00.0,39.4,32.0,18.4,0000.0,0009.42,0003.31,0002.54
2021-10-09 08:15:00,,0821.3,4.99,0.00,30.3,29.4,00.0,39.5,32.0,18.3,0000.0,0009.17,0003.30,0002.54
2021-10-09 08:16:00,,0821.2,4.99,0.00,30.3,29.4,00.0,39.5,32.0,18.2,0000.0,0009.38,0003.28,0002.52
2021-10-09 08:17:00,,0821.1,5.01,0.00,30.3,29.4,00.0,39.5,32.0,18.2,0000.0,0009.61,0003.29,0002.51
2021-10-09 08:18:00,,0821.0,5.00,0.00,30.3,29.4,00.0,39.5,32.0,18.2,0000.0,0009.88,0003.31,0002.50
2021-10-09 08:19:00,,0821.0,5.00,0.00,30.3,29.4,00.0,39.5,32.0,18.3,0000.0,0009.52,0003.31,0002.50
2021-10-09 08:20:00,,0821.0,5.00,0.00,30.3,29.4,00.0,39.5,32.0,18.3,0000.0,0009.61,0003.35,0002.50
2021-10-09 08:21:00,,0820.9,5.01,0.00,30.3,29.4,00.0,39.5,32.0,18.3,0000.0,0010.14,0003.38,0002.51
2021-10-09 08:22:00,,0820.9,5.01,0.00,30.3,29.4,00.0,39.5,32.0,18.2,0000.0,0009.39,0003.37,0002.51
2021-10-09 08:23:00,,0820.9,4.99,0.00,30.3,29.4,00.0,39.5,32.0,18.1,0000.0,0009.40,0003.35,0002.51
2021-10-09 08:24:00,,0820.9,5.00,0.00,30.3,29.4,00.0,39.5,32.1,17.8,0000.0,0008.96,0003.33,0002.51
2021-10-09 08:25:00,,0820.9,5.01,0.00,30.3,29.4,00.0,39.5,32.1,17.6,0000.0,0008.88,0003.31,0002.50
2021-10-09 08:26:00,,0820.9,5.00,0.00,30.3,29.4,00.0,39.5,32.0,17.7,0000.0,0009.03,0003.30,0002.48
2021-10-09 08:27:00,,0820.9,4.98,0.00,30.3,29.4,00.0,39.5,32.0,17.8,0000.0,0008.97,0003.29,0002.47
2021-10-09 08:28:00,,0820.9,5.00,0.00,30.3,29.4,00.0,39.5,32.0,17.6,0000.0,0008.47,0003.26,0002.45
2021-10-09 08:29:00,,0820.9,5.00,0.00,30.3,29.3,00.0,39.5,32.0,17.7,0000.0,0008.54,0003.24,0002.43
2021-10-09 08:30:00,,0820.9,5.01,0.00,30.3,29.3,00.0,39.5,32.0,17.4,0000.0,0008.50,0003.22,0002.39
2021-10-09 08:31:00,,0820.9,5.00,0.00,30.3,29.3,00.0,39.5,32.0,17.3,0000.0,0008.23,0003.18,0002.31
2021-10-09 08:32:00,,0821.0,4.99,0.00,30.3,29.3,00.0,39.5,32.0,17.3,0000.0,0007.56,0003.03,0002.17
2021-10-09 08:33:00,,0820.9,5.01,0.00,30.3,29.3,00.0,39.5,32.0,17.2,0000.0,0007.12,0002.79,0002.01
2021-10-09 08:34:00,,0820.9,4.99,0.00,30.3,29.3,00.0,39.5,32.1,17.3,0000.0,0006.85,0002.64,0001.86
2021-10-09 08:35:00,,0820.9,5.01,0.00,30.3,29.3,00.0,39.5,32.1,17.3,0000.0,0006.45,0002.54,0001.75
2021-10-09 08:36:00,,0820.9,5.00,0.00,30.3,29.4,00.0,39.5,32.0,17.2,0000.0,0005.83,0002.32,0001.61
2021-10-09 08:37:00,,0820.9,4.98,0.00,30.3,29.3,00.0,39.5,32.0,17.2,0000.0,0005.33,0002.13,0001.48
2021-10-09 08:38:00,,0820.9,5.00,0.00,30.3,29.3,00.0,39.5,32.0,17.2,0000.0,0004.22,0001.92,0001.35
2021-10-09 08:39:00,,0820.9,5.01,0.00,30.3,29.3,00.0,39.5,32.0,17.2,0000.0,0005.24,0001.76,0001.24
2021-10-09 08:40:00,,0821.0,5.00,0.00,30.3,29.3,00.0,39.5,32.0,17.2,0000.0,0004.87,0001.66,0001.18
2021-10-09 08:41:00,,0821.0,4.99,0.00,30.3,29.3,00.0,39.5,32.0,17.2,0000.0,0004.54,0001.58,0001.11
2021-10-09 08:42:00,,0821.0,5.00,0.00,30.3,29.3,00.0,39.5,32.0,17.2,0000.0,0004.73,0001.52,0001.08
2021-10-09 08:43:00,,0821.0,5.01,0.00,30.3,29.3,00.0,39.5,32.0,17.2,0000.0,0004.61,0001.48,0001.07
2021-10-09 08:44:00,,0821.0,4.99,0.00,30.3,29.3,00.0,39.5,32.0,17.3,0000.0,0004.83,0001.57,0001.13
2021-10-09 08:45:00,,0821.0,5.00,0.00,30.3,29.3,00.0,39.5,32.0,17.4,0000.0,0005.06,0001.66,0001.20
2021-10-09 08:46:00,,0821.0,5.00,0.00,30.3,29.3,00.0,39.5,32.1,17.4,0000.0,0005.13,0001.70,0001.26
2021-10-09 08:47:00,,0821.0,5.01,0.00,30.3,29.3,00.0,39.5,32.0,17.3,0000.0,0005.27,0001.75,0001.30
2021-10-09 08:48:00,,0821.0,5.01,0.00,30.3,29.3,00.0,39.5,32.0,17.5,0000.0,0005.88,0001.89,0001.39
2021-10-09 08:49:00,,0821.1,5.00,0.00,30.3,29.3,00.0,39.5,32.0,17.4,0000.0,0007.41,0002.05,0001.48
2021-10-09 08:50:00,,0821.0,5.01,0.00,30.3,29.3,00.0,39.5,32.0,17.6,0000.0,0007.84,0002.26,0001.57
2021-10-09 08:51:00,,0821.0,5.00,0.00,30.3,29.3,00.0,39.5,32.0,17.9,0000.0,0007.95,0002.46,0001.68
2021-10-09 08:52:00,,0821.0,5.01,0.00,30.3,29.3,00.0,39.5,32.0,18.0,0000.0,0007.89,0002.61,0001.79
2021-10-09 08:53:00,,0821.0,4.99,0.00,30.3,29.3,00.0,39.5,32.0,18.0,0000.0,0007.69,0002.68,0001.88
2021-10-09 08:54:00,,0821.0,5.00,0.00,30.3,29.3,00.0,39.5,32.0,18.0,0000.0,0008.25,0002.86,0002.00
2021-10-09 08:55:00,,0821.0,4.99,0.00,30.3,29.3,00.0,39.5,32.0,17.9,0000.0,0008.59,0002.94,0002.08
2021-10-09 08:56:00,,0821.0,5.02,0.00,30.3,29.3,00.0,39.5,32.0,18.0,0000.0,0008.98,0003.04,0002.13
2021-10-09 08:57:00,,0820.9,5.00,0.00,30.3,29.3,00.0,39.5,32.0,18.1,0000.0,0009.05,0003.15,0002.21
2021-10-09 08:58:00,,0821.0,5.00,0.00,30.3,29.3,00.0,39.5,32.0,18.0,0000.0,0009.58,0003.19,0002.29
2021-10-09 08:59:00,,0821.0,5.01,0.00,30.3,29.3,00.0,39.5,32.0,17.9,0000.0,0009.47,0003.21,0002.33
